TimeEST,TemperatureF,Dew PointF,Humidity,Sea Level PressureIn,VisibilityMPH,Wind Direction,Wind SpeedMPH,Gust SpeedMPH,PrecipitationIn,Events,Conditions,WindDirDegrees,DateUTC
12:31 AM,33.8,26.6,75,30.34,10.0,NNW,4.6,-,N/A,,Overcast,330,2013-03-08 05:31:00
12:53 AM,34.0,27.0,75,30.37,10.0,NNW,4.6,-,N/A,,Overcast,340,2013-03-08 05:53:00
1:53 AM,34.0,28.0,79,30.38,9.0,NNW,3.5,-,N/A,,Overcast,340,2013-03-08 06:53:00
2:53 AM,33.1,27.0,78,30.37,10.0,North,4.6,-,N/A,,Mostly Cloudy,10,2013-03-08 07:53:00
3:53 AM,30.9,26.1,82,30.38,10.0,NNE,5.8,-,N/A,,Clear,20,2013-03-08 08:53:00
4:53 AM,30.9,25.0,79,30.40,10.0,NNE,9.2,-,N/A,,Clear,20,2013-03-08 09:53:00
5:53 AM,30.0,24.1,79,30.43,10.0,NNE,6.9,-,N/A,,Clear,20,2013-03-08 10:53:00
6:53 AM,28.9,24.1,82,30.46,10.0,North,5.8,-,N/A,,Clear,10,2013-03-08 11:53:00
7:53 AM,30.0,24.1,79,30.47,10.0,North,3.5,-,N/A,,Clear,360,2013-03-08 12:53:00
8:53 AM,33.1,24.1,70,30.49,10.0,NNE,5.8,-,N/A,,Clear,20,2013-03-08 13:53:00
9:53 AM,35.1,23.0,61,30.48,10.0,NE,6.9,-,N/A,,Clear,40,2013-03-08 14:53:00
10:53 AM,37.0,25.0,62,30.48,10.0,East,6.9,-,N/A,,Clear,80,2013-03-08 15:53:00
11:53 AM,39.0,26.1,60,30.47,10.0,Variable,4.6,-,N/A,,Clear,0,2013-03-08 16:53:00
12:53 PM,41.0,26.1,55,30.45,10.0,NE,5.8,-,N/A,,Clear,50,2013-03-08 17:53:00
1:53 PM,43.0,26.1,51,30.43,10.0,ENE,4.6,-,N/A,,Clear,60,2013-03-08 18:53:00
2:53 PM,44.1,27.0,51,30.43,10.0,Variable,4.6,-,N/A,,Partly Cloudy,0,2013-03-08 19:53:00
3:53 PM,45.0,26.1,48,30.42,10.0,NNW,8.1,-,N/A,,Partly Cloudy,330,2013-03-08 20:53:00
4:53 PM,44.1,26.1,49,30.41,10.0,NNW,5.8,-,N/A,,Clear,340,2013-03-08 21:53:00
5:53 PM,44.1,26.1,49,30.41,10.0,Calm,Calm,-,N/A,,Clear,0,2013-03-08 22:53:00
6:53 PM,39.0,28.0,65,30.40,10.0,NNE,4.6,-,N/A,,Clear,20,2013-03-08 23:53:00
7:53 PM,36.0,26.1,67,30.41,10.0,Calm,Calm,-,N/A,,Clear,0,2013-03-09 00:53:00
8:53 PM,32.0,28.0,85,30.43,10.0,Calm,Calm,-,N/A,,Clear,0,2013-03-09 01:53:00
9:53 PM,30.0,25.0,82,30.44,10.0,Calm,Calm,-,N/A,,Clear,0,2013-03-09 02:53:00
10:53 PM,28.0,25.0,88,30.45,8.0,Calm,Calm,-,N/A,,Clear,0,2013-03-09 03:53:00
11:53 PM,30.0,26.1,85,30.43,10.0,East,4.6,-,N/A,,Clear,80,2013-03-09 04:53:00